Location: Plainartige
(45.6866°N, 1.7993°E)
Time: 13:17:01
(UTC+00:00)

ZACube-1 - Visible Passes

Search period start: 28 June 2022 00:00
Search period end: 08 July 2022 00:00
Orbit: 581 x 662 km, 97.6° (Epoch: 28 June)

Date Brightness Start Highest point End Pass type
(mag) Time Alt. Az. Time Alt. Az. Time Alt. Az.
28 Jun ? 02:56:51 10° NE 03:00:24 23° E 03:03:59 10° SSE visible
29 Jun ? 03:14:17 10° NNE 03:18:21 34° E 03:22:27 10° SSE visible
02 Jul ? 02:33:02 10° ENE 02:35:17 14° E 02:37:32 10° ESE visible
03 Jul ? 02:49:56 10° NE 02:53:17 20° E 02:56:39 10° SE visible
04 Jul ? 03:07:15 10° NNE 03:11:14 30° E 03:15:13 10° SSE visible
05 Jul ? 03:24:48 10° NNE 03:29:08 45° E 03:33:29 10° S visible
07 Jul ? 02:26:27 10° ENE 02:28:05 12° E 02:29:44 10° ESE visible
